Meteo Giornale » Osservazioni meteo Gran Bretagna » Lydd

ore: 19:20 - Osservazioni Meteo Lydd
Lat. 50° 57' N Lon. 0° 56' E Alt. 3 metri s.l.m.

sereno

18 °C

Sereno

Temp. 24 Ore

12 °C

21 °C

Ovest/Sud-Ovest

24 Km/h

Dew point 13 °C

Umidità 72 %

Visibilità  10 Km

Il sole sorge alle ore 06:09

Il sole tramonta alle ore 19:42

Data e Ora Cielo e Fenomeni T °C DP °C Um. % Pres. hPa Vis. km Vento km/h
Oggi h: 19:20 sereno Sereno 18 13 72 1020 10 O/SO 24
Oggi h: 18:50 sereno Sereno 19 14 72 1020 10 O/SO 27.8
Oggi h: 18:20 poco_nuvoloso Poco Nuvoloso 19 13 68 1020 10 SO 31.5
Oggi h: 17:50 poco_nuvoloso Poco Nuvoloso 19 13 68 1020 10 SO 29.6
Oggi h: 17:20 poco_nuvoloso Poco Nuvoloso 20 12 59 1020 10 SO 31.5
Oggi h: 16:50 poco_nuvoloso Poco Nuvoloso 20 13 64 1020 10 SO 33.3
Oggi h: 16:20 poco_nuvoloso Poco Nuvoloso 20 13 64 1020 10 SO 37
Oggi h: 15:20 poco_nuvoloso Poco Nuvoloso 21 13 60 1020 10 SO 33.3
Oggi h: 14:50 poco_nuvoloso Poco Nuvoloso 21 12 56 1021 10 SO 33.3
Oggi h: 14:20 poco_nuvoloso Poco Nuvoloso 21 13 60 1021 10 SO 31.5
Oggi h: 13:50 poco_nuvoloso Poco Nuvoloso 21 12 56 1021 10 S/SO 25.9
Oggi h: 13:20 poco_nuvoloso Poco Nuvoloso 21 12 56 1021 10 S/SO 25.9
Oggi h: 12:50 poco_nuvoloso Poco Nuvoloso 20 12 59 1021 10 S/SO 24
Oggi h: 12:20 poco_nuvoloso Poco Nuvoloso 20 12 59 1021 10 SO 22.2
Oggi h: 11:50 poco_nuvoloso Poco Nuvoloso 21 11 52 1021 10 SO 22.2
Oggi h: 11:20 poco_nuvoloso Poco Nuvoloso 21 12 56 1021 10 SO 14.8
Oggi h: 10:50 sereno Sereno 20 12 59 1022 10 O 13
Oggi h: 10:20 sereno Sereno 18 13 72 1022 10 O 11.1
Oggi h: 09:50 sereno Sereno 17 13 77 1022 10 O 11.1
Oggi h: 09:20 sereno Sereno 16 13 82 1021 10 O 11.1
Oggi h: 08:50 sereno Sereno 16 12 77 1021 10 O/NO 14.8
Oggi h: 08:20 sereno Sereno 15 12 82 1021 10 O/NO 11.1
Oggi h: 07:50 sereno Sereno 14 12 87 1021 10 O/NO 11.1
Oggi h: 07:20 sereno Sereno 13 12 93 1020 10 O 9.3
Oggi h: 06:50 sereno Sereno 12 11 93 1020 10 O/NO 13
Oggi h: 06:20 sereno Sereno 12 10 87 1020 10 O/NO 13
Oggi h: 05:50 poco_nuvoloso Poco Nuvoloso 12 10 87 1020 10 O/NO 13
Oggi h: 05:20 poco_nuvoloso Poco Nuvoloso 13 11 87 1020 10 O/NO 11.1
Oggi h: 04:50 molto_nuvoloso Molto Nuvoloso 13 11 87 1019 10 O/NO 11.1
Oggi h: 04:20 molto_nuvoloso Molto Nuvoloso 13 11 87 1019 10 O/NO 7.4
Oggi h: 03:50 molto_nuvoloso Molto Nuvoloso 14 12 87 1019 10 O/NO 11.1
Oggi h: 03:20 poco_nuvoloso Poco Nuvoloso 14 12 87 1019 10 O/NO 13
Oggi h: 02:50 nuvoloso Nuvoloso 14 11 82 1019 10 O/NO 11.1
Oggi h: 02:20 molto_nuvoloso Molto Nuvoloso 15 12 82 1019 10 O/NO 11.1
Oggi h: 01:50 molto_nuvoloso Molto Nuvoloso 15 12 82 1019 10 O/NO 11.1
Oggi h: 01:20 molto_nuvoloso Molto Nuvoloso 15 12 82 1019 10 O/NO 9.3
Oggi h: 00:50 sereno Sereno 15 12 82 1018 10 O/NO 9.3
Oggi h: 00:20 poco_nuvoloso Poco Nuvoloso 16 12 77 1019 10 O 13
Ieri h: 23:50 sereno Sereno 16 12 77 1018 10 O 14.8
Ieri h: 23:20 sereno Sereno 16 13 82 1018 10 O 14.8
Ieri h: 22:50 sereno Sereno 17 14 82 1018 10 O 14.8
Ieri h: 22:20 sereno Sereno 17 15 88 1018 10 O/SO 14.8
Ieri h: 21:50 sereno Sereno 17 15 88 1018 10 O/SO 13
Ieri h: 21:20 sereno Sereno 18 15 82 1017 10 O/SO 16.7
Ieri h: 20:50 sereno Sereno 19 16 82 1017 10 O/SO 18.5
Ieri h: 20:20 sereno Sereno 19 15 77 1016 10 O/SO 25.9
Ieri h: 19:50 sereno Sereno 19 16 82 1016 10 O/SO 25.9